QPF
0.07 0.06 0.05 0.04 0.06 0.08 0.12 0.13 0.11 0.06 0.03 0.05 0.09 0.09 0.12 0.14 0.18 0.19 0.15 0.10 0.07 0.07 0.07 0.06 0.05 0.05 0.04 0.04 0.04 0.04 0.03 0.04 0.04 0.05 0.05 0.06 0.07 0.07
0.06 0.05 0.05 0.05 0.06 0.07 0.10 0.12 0.10 0.08 0.05 0.05 0.06 0.06 0.10 0.12 0.17 0.17 0.15 0.16 0.15 0.11 0.09 0.08 0.07 0.05 0.04 0.03 0.03 0.02 0.03 0.03 0.03 0.04 0.04 0.04 0.04 0.05
0.08 0.06 0.05 0.06 0.07 0.07 0.10 0.11 0.09 0.09 0.06 0.05 0.06 0.05 0.07 0.11 0.14 0.15 0.15 0.17 0.16 0.16 0.16 0.14 0.11 0.08 0.05 0.03 0.03 0.03 0.03 0.02 0.02 0.03 0.03 0.03 0.03 0.03
0.08 0.07 0.06 0.06 0.06 0.08 0.11 0.10 0.09 0.09 0.07 0.06 0.06 0.06 0.06 0.08 0.10 0.12 0.12 0.13 0.13 0.15 0.17 0.17 0.15 0.11 0.09 0.06 0.05 0.04 0.03 0.03 0.02 0.02 0.02 0.02 0.02 0.02
0.11 0.09 0.08 0.08 0.06 0.07 0.08 0.06 0.05 0.06 0.06 0.05 0.05 0.07 0.06 0.06 0.07 0.08 0.10 0.13 0.12 0.11 0.13 0.12 0.10 0.08 0.06 0.05 0.06 0.05 0.04 0.04 0.04 0.04 0.04 0.03 0.03 0.03
0.15 0.14 0.12 0.11 0.07 0.05 0.03 0.04 0.04 0.04 0.05 0.04 0.05 0.06 0.06 0.06 0.08 0.09 0.10 0.11 0.12 0.12 0.12 0.10 0.08 0.07 0.07 0.06 0.05 0.05 0.05 0.05 0.06 0.06 0.06 0.05 0.04 0.04
0.11 0.11 0.09 0.08 0.06 0.04 0.03 0.03 0.03 0.03 0.03 0.04 0.05 0.05 0.06 0.07 0.07 0.07 0.10 0.11 0.12 0.13 0.13 0.11 0.11 0.09 0.07 0.06 0.05 0.05 0.06 0.07 0.07 0.08 0.07 0.06 0.05 0.05
0.10 0.10 0.07 0.06 0.05 0.03 0.03 0.03 0.04 0.03 0.03 0.04 0.05 0.06 0.07 0.07 0.07 0.07 0.08 0.09 0.12 0.13 0.15 0.16 0.16 0.16 0.14 0.09 0.08 0.07 0.06 0.06 0.06 0.06 0.06 0.06 0.05 0.05
0.10 0.10 0.09 0.09 0.07 0.05 0.04 0.04 0.04 0.04 0.04 0.04 0.04 0.05 0.07 0.07 0.08 0.08 0.07 0.08 0.09 0.11 0.13 0.15 0.16 0.19 0.19 0.16 0.13 0.11 0.10 0.09 0.08 0.06 0.05 0.05 0.05 0.05
0.09 0.11 0.12 0.10 0.07 0.07 0.07 0.05 0.05 0.04 0.04 0.04 0.04 0.04 0.04 0.05 0.05 0.06 0.07 0.07 0.08 0.09 0.11 0.12 0.12 0.12 0.12 0.13 0.14 0.14 0.14 0.13 0.11 0.08 0.07 0.06 0.06 0.05
0.12 0.11 0.10 0.07 0.07 0.09 0.09 0.07 0.04 0.03 0.04 0.04 0.04 0.04 0.04 0.04 0.04 0.04 0.05 0.07 0.08 0.08 0.08 0.08 0.09 0.09 0.09 0.10 0.10 0.12 0.11 0.12 0.12 0.10 0.08 0.07 0.07 0.06
0.09 0.08 0.06 0.05 0.05 0.05 0.05 0.04 0.03 0.03 0.03 0.04 0.04 0.04 0.03 0.03 0.04 0.04 0.05 0.06 0.06 0.05 0.04 0.04 0.06 0.07 0.06 0.08 0.10 0.10 0.09 0.09 0.10 0.11 0.10 0.08 0.07 0.06
0.03 0.03 0.03 0.04 0.04 0.05 0.05 0.05 0.06 0.06 0.06 0.05 0.04 0.03 0.04 0.05 0.06 0.07 0.08 0.07 0.06 0.04 0.04 0.04 0.05 0.06 0.06 0.07 0.09 0.09 0.08 0.07 0.09 0.09 0.09 0.08 0.07 0.06
0.02 0.02 0.02 0.03 0.04 0.06 0.07 0.08 0.08 0.06 0.05 0.03 0.02 0.02 0.03 0.05 0.06 0.06 0.05 0.05 0.04 0.05 0.06 0.07 0.07 0.08 0.09 0.08 0.09 0.09 0.09 0.08 0.07 0.08 0.10 0.10 0.07 0.05
0.01 0.01 0.02 0.03 0.04 0.04 0.04 0.04 0.03 0.03 0.02 0.02 0.02 0.02 0.03 0.04 0.03 0.03 0.04 0.05 0.06 0.06 0.06 0.08 0.10 0.10 0.11 0.11 0.12 0.11 0.09 0.07 0.05 0.05 0.06 0.06 0.06 0.05
0.01 0.01 0.01 0.02 0.02 0.02 0.02 0.01 0.01 0.01 0.01 0.01 0.01 0.02 0.02 0.03 0.04 0.04 0.04 0.05 0.06 0.06 0.06 0.06 0.06 0.07 0.07 0.07 0.06 0.06 0.06 0.05 0.05 0.05 0.04 0.04 0.04 0.04
0.01 0.01 0.01 0.01 0.01 0.01 0.01 0.01 0.01 0.01 0.01 0.01 0.01 0.01 0.01 0.01 0.01 0.01 0.02 0.03 0.03 0.03 0.03 0.03 0.03 0.03 0.03 0.03 0.03 0.04 0.04 0.04 0.04 0.05 0.04 0.03 0.03 0.03
0.01 0.02 0.02 0.02 0.02 0.02 0.02 0.02 0.01 0.01 0.00 0.01 0.01 0.01 0.00 0.00 0.00 0.01 0.01 0.02 0.02 0.02 0.01 0.01 0.01 0.01 0.01 0.01 0.02 0.02 0.02 0.02 0.03 0.05 0.04 0.03 0.02 0.01
0.01 0.02 0.02 0.01 0.01 0.02 0.02 0.01 0.01 0.01 0.00 0.00 0.00 0.00 0.00 0.00 0.00 0.00 0.01 0.01 0.01 0.02 0.01 0.01 0.01 0.01 0.02 0.02 0.01 0.01 0.01 0.01 0.02 0.03 0.04 0.03 0.01 0.02
0.01 0.01 0.01 0.01 0.01 0.02 0.02 0.02 0.02 0.01 0.01 0.01 0.01 0.00 0.00 0.00 0.00 0.00 0.01 0.01 0.01 0.01 0.01 0.01 0.01 0.02 0.02 0.02 0.01 0.01 0.01 0.01 0.01 0.02 0.02 0.02 0.02 0.02
0.02 0.02 0.02 0.02 0.02 0.02 0.02 0.02 0.02 0.02 0.01 0.01 0.01 0.01 0.01 0.01 0.01 0.01 0.01 0.01 0.01 0.01 0.01 0.01 0.01 0.02 0.02 0.01 0.02 0.01 0.01 0.01 0.01 0.02 0.01 0.01 0.01 0.01
0.02 0.02 0.02 0.03 0.03 0.02 0.01 0.01 0.01 0.01 0.01 0.01 0.01 0.01 0.01 0.01 0.01 0.01 0.01 0.01 0.01 0.01 0.01 0.01 0.01 0.01 0.01 0.02 0.02 0.02 0.01 0.01 0.01 0.01 0.01 0.01 0.01 0.01
0.01 0.02 0.02 0.03 0.02 0.02 0.01 0.01 0.01 0.01 0.01 0.01 0.01 0.01 0.01 0.01 0.01 0.01 0.02 0.01 0.01 0.01 0.01 0.01 0.02 0.02 0.02 0.02 0.02 0.02 0.01 0.01 0.01 0.01 0.01 0.01 0.01 0.02
MSLP
1016.54 1016.78 1017.03 1017.26 1017.43 1017.50 1017.44 1017.26 1016.96 1016.57 1016.13 1015.67 1015.22 1014.80 1014.40 1014.02 1013.65 1013.29 1012.92 1012.56 1012.21 1011.90 1011.63 1011.41 1011.24 1011.11 1011.02 1010.94 1010.86 1010.78 1010.70 1010.63 1010.58 1010.58 1010.63 1010.74 1010.90 1011.11
1016.65 1016.86 1017.10 1017.31 1017.47 1017.54 1017.49 1017.33 1017.06 1016.71 1016.31 1015.89 1015.47 1015.06 1014.65 1014.23 1013.81 1013.38 1012.93 1012.47 1012.04 1011.64 1011.30 1011.02 1010.81 1010.65 1010.53 1010.42 1010.31 1010.19 1010.04 1009.89 1009.74 1009.62 1009.55 1009.53 1009.58 1009.70
1016.95 1017.13 1017.33 1017.50 1017.63 1017.67 1017.61 1017.46 1017.21 1016.90 1016.55 1016.17 1015.78 1015.39 1014.98 1014.55 1014.09 1013.60 1013.08 1012.54 1012.02 1011.55 1011.13 1010.80 1010.54 1010.35 1010.20 1010.07 1009.93 1009.75 1009.54 1009.31 1009.05 1008.81 1008.60 1008.44 1008.36 1008.35
1017.38 1017.52 1017.67 1017.79 1017.87 1017.87 1017.79 1017.63 1017.40 1017.12 1016.80 1016.47 1016.12 1015.76 1015.37 1014.94 1014.45 1013.92 1013.34 1012.74 1012.15 1011.60 1011.12 1010.72 1010.42 1010.18 1010.00 1009.83 1009.65 1009.43 1009.15 1008.83 1008.48 1008.11 1007.77 1007.48 1007.26 1007.12
1017.88 1017.98 1018.07 1018.13 1018.16 1018.12 1018.01 1017.83 1017.60 1017.34 1017.06 1016.76 1016.46 1016.13 1015.76 1015.34 1014.86 1014.30 1013.68 1013.03 1012.39 1011.77 1011.23 1010.77 1010.41 1010.12 1009.89 1009.68 1009.44 1009.17 1008.83 1008.43 1007.99 1007.52 1007.06 1006.64 1006.29 1006.03
1018.38 1018.42 1018.46 1018.48 1018.45 1018.37 1018.23 1018.04 1017.81 1017.56 1017.30 1017.04 1016.77 1016.48 1016.14 1015.75 1015.27 1014.71 1014.08 1013.40 1012.71 1012.05 1011.45 1010.93 1010.50 1010.15 1009.85 1009.58 1009.29 1008.95 1008.55 1008.09 1007.57 1007.01 1006.46 1005.94 1005.47 1005.09
1018.81 1018.82 1018.82 1018.80 1018.73 1018.62 1018.45 1018.25 1018.01 1017.77 1017.52 1017.28 1017.04 1016.79 1016.49 1016.12 1015.67 1015.13 1014.51 1013.82 1013.11 1012.42 1011.76 1011.19 1010.69 1010.27 1009.90 1009.55 1009.19 1008.79 1008.33 1007.80 1007.22 1006.60 1005.97 1005.35 1004.79 1004.29
1019.17 1019.15 1019.13 1019.08 1019.00 1018.87 1018.69 1018.47 1018.23 1017.98 1017.74 1017.51 1017.30 1017.06 1016.80 1016.46 1016.05 1015.54 1014.94 1014.27 1013.56 1012.85 1012.17 1011.54 1010.98 1010.49 1010.04 1009.62 1009.18 1008.71 1008.19 1007.60 1006.96 1006.28 1005.59 1004.91 1004.25 1003.65
1019.45 1019.43 1019.41 1019.36 1019.28 1019.14 1018.95 1018.73 1018.47 1018.22 1017.97 1017.74 1017.53 1017.31 1017.07 1016.77 1016.39 1015.92 1015.37 1014.73 1014.05 1013.35 1012.65 1012.00 1011.39 1010.84 1010.32 1009.81 1009.30 1008.76 1008.17 1007.53 1006.83 1006.11 1005.36 1004.61 1003.87 1003.17
1019.71 1019.70 1019.70 1019.67 1019.60 1019.47 1019.28 1019.05 1018.78 1018.51 1018.24 1018.00 1017.77 1017.55 1017.31 1017.03 1016.69 1016.27 1015.77 1015.19 1014.55 1013.88 1013.20 1012.54 1011.91 1011.31 1010.73 1010.16 1009.58 1008.97 1008.32 1007.62 1006.88 1006.10 1005.29 1004.48 1003.68 1002.88
1020.00 1020.02 1020.05 1020.05 1020.00 1019.88 1019.70 1019.46 1019.18 1018.87 1018.57 1018.29 1018.04 1017.80 1017.55 1017.28 1016.97 1016.59 1016.14 1015.62 1015.04 1014.42 1013.78 1013.14 1012.51 1011.89 1011.28 1010.66 1010.03 1009.36 1008.65 1007.90 1007.10 1006.27 1005.42 1004.55 1003.68 1002.80
1020.37 1020.43 1020.50 1020.53 1020.51 1020.41 1020.23 1019.98 1019.67 1019.33 1018.99 1018.66 1018.36 1018.08 1017.82 1017.54 1017.24 1016.89 1016.49 1016.03 1015.51 1014.95 1014.37 1013.77 1013.16 1012.54 1011.92 1011.28 1010.60 1009.89 1009.14 1008.34 1007.50 1006.63 1005.73 1004.82 1003.89 1002.96
1020.86 1020.97 1021.07 1021.13 1021.13 1021.05 1020.86 1020.60 1020.26 1019.89 1019.50 1019.12 1018.77 1018.44 1018.14 1017.84 1017.53 1017.20 1016.82 1016.41 1015.95 1015.45 1014.92 1014.37 1013.80 1013.20 1012.59 1011.94 1011.25 1010.51 1009.73 1008.90 1008.03 1007.13 1006.21 1005.27 1004.31 1003.35
1021.49 1021.63 1021.76 1021.85 1021.87 1021.78 1021.60 1021.32 1020.96 1020.55 1020.12 1019.69 1019.28 1018.90 1018.54 1018.21 1017.87 1017.53 1017.16 1016.77 1016.35 1015.89 1015.41 1014.90 1014.37 1013.81 1013.21 1012.57 1011.88 1011.14 1010.35 1009.51 1008.63 1007.73 1006.80 1005.85 1004.90 1003.95
1022.22 1022.39 1022.55 1022.65 1022.67 1022.59 1022.40 1022.12 1021.74 1021.31 1020.84 1020.37 1019.91 1019.48 1019.07 1018.68 1018.30 1017.93 1017.54 1017.14 1016.73 1016.29 1015.83 1015.35 1014.84 1014.30 1013.73 1013.11 1012.43 1011.70 1010.92 1010.10 1009.23 1008.34 1007.44 1006.53 1005.62 1004.72
1023.04 1023.23 1023.39 1023.50 1023.52 1023.44 1023.25 1022.96 1022.59 1022.14 1021.66 1021.16 1020.67 1020.19 1019.72 1019.28 1018.84 1018.42 1017.99 1017.55 1017.10 1016.65 1016.18 1015.70 1015.20 1014.67 1014.11 1013.50 1012.85 1012.14 1011.39 1010.59 1009.77 1008.93 1008.08 1007.23 1006.40 1005.59
1023.88 1024.08 1024.24 1024.35 1024.37 1024.29 1024.11 1023.82 1023.46 1023.02 1022.54 1022.04 1021.52 1021.01 1020.50 1020.00 1019.50 1019.00 1018.51 1018.01 1017.50 1017.00 1016.49 1015.97 1015.45 1014.91 1014.34 1013.74 1013.11 1012.43 1011.71 1010.97 1010.20 1009.43 1008.67 1007.92 1007.19 1006.50
1024.70 1024.89 1025.05 1025.15 1025.17 1025.09 1024.92 1024.66 1024.31 1023.90 1023.44 1022.95 1022.43 1021.90 1021.36 1020.81 1020.25 1019.68 1019.10 1018.52 1017.93 1017.35 1016.78 1016.20 1015.63 1015.06 1014.47 1013.86 1013.23 1012.58 1011.91 1011.22 1010.53 1009.84 1009.18 1008.54 1007.94 1007.38
1025.45 1025.64 1025.78 1025.87 1025.88 1025.81 1025.66 1025.42 1025.10 1024.73 1024.30 1023.83 1023.33 1022.79 1022.23 1021.64 1021.02 1020.39 1019.73 1019.06 1018.39 1017.73 1017.07 1016.43 1015.79 1015.17 1014.55 1013.92 1013.29 1012.66 1012.02 1011.39 1010.77 1010.17 1009.61 1009.09 1008.62 1008.19
1026.10 1026.28 1026.41 1026.48 1026.49 1026.42 1026.28 1026.06 1025.78 1025.44 1025.05 1024.62 1024.13 1023.60 1023.03 1022.41 1021.76 1021.07 1020.35 1019.61 1018.86 1018.12 1017.39 1016.67 1015.97 1015.29 1014.63 1013.98 1013.35 1012.72 1012.11 1011.52 1010.96 1010.45 1009.98 1009.57 1009.21 1008.91
1026.64 1026.79 1026.90 1026.95 1026.95 1026.88 1026.75 1026.56 1026.30 1026.00 1025.64 1025.23 1024.77 1024.25 1023.68 1023.05 1022.37 1021.65 1020.89 1020.10 1019.30 1018.51 1017.72 1016.95 1016.20 1015.48 1014.78 1014.10 1013.45 1012.82 1012.23 1011.67 1011.16 1010.70 1010.31 1009.98 1009.71 1009.51
1027.04 1027.17 1027.25 1027.29 1027.27 1027.19 1027.06 1026.88 1026.64 1026.36 1026.02 1025.64 1025.19 1024.69 1024.12 1023.50 1022.81 1022.08 1021.31 1020.50 1019.69 1018.87 1018.05 1017.25 1016.48 1015.73 1015.00 1014.30 1013.64 1013.00 1012.41 1011.87 1011.38 1010.96 1010.61 1010.33 1010.13 1009.99
1027.31 1027.41 1027.46 1027.47 1027.44 1027.35 1027.21 1027.03 1026.80 1026.52 1026.20 1025.82 1025.39 1024.89 1024.34 1023.72 1023.05 1022.33 1021.57 1020.78 1019.98 1019.17 1018.37 1017.57 1016.80 1016.04 1015.31 1014.60 1013.92 1013.27 1012.67 1012.12 1011.64 1011.22 1010.88 1010.63 1010.45 1010.35
Thickness
5746 5745 5744 5743 5743 5742 5740 5737 5730 5725 5727 5733 5736 5740 5740 5739 5738 5736 5734 5733 5732 5730 5727 5725 5723 5721 5719 5717 5715 5712 5711 5709 5707 5705 5704 5702 5700 5698
5745 5744 5742 5742 5741 5740 5739 5738 5735 5729 5725 5730 5732 5735 5736 5735 5734 5733 5731 5730 5729 5727 5724 5722 5720 5718 5716 5714 5712 5710 5708 5706 5704 5702 5700 5698 5697 5695
5742 5741 5739 5739 5738 5737 5736 5735 5732 5729 5725 5727 5729 5730 5730 5729 5729 5728 5727 5725 5724 5722 5721 5719 5717 5714 5712 5710 5708 5706 5704 5702 5700 5698 5696 5694 5692 5691
5738 5737 5735 5735 5733 5733 5732 5731 5729 5728 5724 5722 5722 5722 5722 5722 5722 5721 5721 5720 5719 5718 5716 5714 5713 5710 5708 5706 5704 5702 5700 5697 5695 5693 5691 5689 5688 5686
5734 5732 5731 5729 5728 5727 5727 5726 5725 5725 5722 5718 5716 5715 5715 5715 5714 5714 5714 5713 5713 5712 5710 5708 5706 5705 5703 5701 5698 5696 5694 5692 5690 5687 5685 5683 5682 5680
5729 5727 5726 5724 5723 5722 5722 5720 5719 5717 5715 5712 5709 5707 5706 5706 5705 5704 5704 5704 5704 5704 5702 5701 5699 5697 5695 5693 5691 5689 5687 5685 5683 5680 5678 5676 5674 5673
5724 5722 5721 5720 5719 5718 5716 5714 5712 5710 5707 5704 5701 5699 5697 5696 5695 5695 5694 5694 5694 5694 5692 5691 5689 5687 5685 5683 5682 5680 5679 5677 5674 5672 5669 5667 5666 5664
5717 5715 5714 5713 5712 5711 5709 5708 5706 5702 5698 5696 5693 5690 5688 5687 5687 5686 5684 5683 5680 5681 5680 5678 5678 5676 5674 5672 5671 5669 5668 5666 5664 5662 5660 5658 5656 5655
5710 5708 5707 5706 5704 5703 5701 5699 5697 5695 5692 5689 5685 5682 5680 5679 5678 5677 5674 5672 5669 5668 5668 5666 5665 5663 5663 5661 5659 5658 5656 5655 5653 5651 5649 5647 5645 5643
5703 5701 5698 5696 5696 5694 5692 5689 5686 5684 5682 5680 5677 5675 5673 5672 5670 5668 5665 5663 5661 5658 5656 5652 5652 5650 5651 5649 5648 5646 5644 5643 5641 5639 5637 5636 5633 5631
5694 5692 5690 5688 5687 5685 5682 5679 5676 5674 5673 5670 5668 5665 5664 5662 5660 5658 5654 5651 5647 5645 5643 5640 5638 5637 5637 5636 5635 5633 5631 5629 5627 5625 5624 5623 5621 5619
5684 5682 5681 5679 5677 5674 5671 5668 5664 5662 5660 5659 5657 5655 5653 5651 5649 5646 5642 5637 5633 5630 5629 5626 5624 5622 5621 5621 5619 5618 5616 5614 5612 5611 5610 5608 5607 5605
5674 5671 5669 5668 5666 5664 5661 5658 5654 5652 5649 5646 5643 5641 5639 5637 5635 5633 5630 5626 5620 5616 5615 5613 5610 5607 5604 5603 5603 5602 5601 5599 5598 5596 5595 5593 5592 5590
5663 5660 5658 5657 5655 5653 5649 5646 5644 5640 5636 5633 5629 5626 5623 5621 5620 5618 5616 5613 5609 5605 5603 5600 5596 5593 5590 5587 5586 5585 5585 5583 5582 5580 5579 5578 5576 5575
5654 5651 5648 5646 5643 5640 5636 5633 5630 5626 5622 5618 5614 5610 5609 5607 5606 5604 5601 5598 5596 5592 5590 5587 5583 5580 5577 5572 5570 5569 5568 5567 5566 5564 5563 5561 5560 5559
5643 5640 5636 5633 5629 5625 5622 5618 5614 5611 5607 5603 5599 5597 5595 5593 5590 5587 5584 5580 5577 5575 5575 5573 5570 5567 5562 5559 5556 5554 5552 5551 5550 5549 5547 5546 5545 5544
5631 5627 5623 5618 5614 5610 5607 5603 5600 5597 5593 5589 5586 5583 5580 5577 5574 5572 5568 5564 5560 5558 5557 5557 5555 5552 5549 5546 5542 5540 5538 5537 5536 5534 5532 5530 5530 5529
5621 5614 5608 5604 5599 5595 5592 5589 5586 5582 5578 5575 5572 5569 5566 5562 5560 5557 5554 5549 5546 5543 5541 5540 5538 5537 5534 5533 5531 5527 5525 5523 5522 5520 5518 5516 5515 5516
5608 5601 5595 5590 5586 5583 5579 5576 5572 5569 5566 5562 5559 5556 5553 5550 5546 5542 5539 5535 5532 5530 5527 5525 5523 5520 5517 5515 5517 5517 5513 5511 5510 5508 5506 5504 5503 5503
5593 5588 5583 5579 5575 5571 5567 5564 5560 5557 5554 5551 5547 5544 5540 5536 5533 5529 5526 5522 5519 5516 5514 5512 5510 5508 5505 5503 5502 5503 5504 5501 5499 5497 5495 5493 5492 5492
5580 5576 5572 5568 5563 5560 5556 5552 5548 5545 5542 5539 5535 5531 5528 5524 5521 5517 5514 5511 5507 5504 5502 5500 5500 5499 5497 5494 5491 5490 5491 5491 5489 5486 5485 5483 5481 5479
5569 5565 5561 5557 5553 5549 5544 5540 5537 5533 5530 5527 5523 5520 5517 5513 5510 5506 5502 5499 5496 5494 5492 5491 5491 5489 5486 5482 5479 5479 5479 5480 5480 5478 5476 5474 5471 5469
5559 5554 5550 5546 5542 5538 5534 5530 5526 5521 5518 5515 5512 5509 5506 5503 5499 5496 5493 5490 5487 5484 5482 5480 5479 5477 5474 5472 5470 5469 5469 5468 5467 5466 5466 5465 5464 5463